Location: Argel�s
(43.0167°N, 0.1000°W)
Time: 16:36:39
(UTC+00:00)

Daily predictions for brighter satellites

Satellite Brightness Start Highest point End
(mag) Time Altitude Azimuth Time Altitude Azimuth Time Altitude Azimuth
H-2A R/B 4.2 17:26:14 10° S 17:30:24 42° W 17:34:41 10° NNW
FALCON 9 DEB 4.0 17:28:42 10° SSW 17:31:35 31° SE 17:34:29 10° ENE
Aureole 3 4.5 17:30:08 10° SE 17:32:07 15° E 17:33:59 10° NE
GRACE-FO 1 4.5 17:29:01 10° N 17:32:37 74° E 17:36:13 10° S
GRACE-FO 2 4.5 17:29:24 10° N 17:33:00 75° E 17:36:36 10° S
COSMO-SKYMED 1 3.3 17:29:26 10° NNE 17:33:20 31° E 17:37:11 10° SSE
Cosmos 1400 Rocket 4.1 17:31:58 10° SE 17:35:06 21° E 17:38:13 10° NE
SeaSat 1 4.3 17:33:10 10° ENE 17:35:23 13° NE 17:37:36 10° NNE
Okean O Rocket 1.9 17:33:28 10° S 17:37:50 73° WSW 17:42:12 10° NNW
H-2A R/B 3.5 17:35:00 10° N 17:38:55 39° WNW 17:42:44 10° SW
CZ-4B R/B 3.8 17:36:36 10° S 17:42:10 65° WSW 17:47:42 10° NNW
CZ-2C R/B 4.2 17:37:47 10° ESE 17:42:30 27° ENE 17:47:10 10° N
ATLAS 5 CENTAUR R/B 4.1 17:41:52 10° WNW 17:44:14 14° NNW 17:46:45 10° N
Cosmos 1825 Rocket 3.5 17:41:26 10° N 17:45:53 67° E 17:50:16 10° SSE
GENESIS II 4.2 17:42:24 10° SSW 17:46:24 72° ESE 17:50:27 10° NE
Cosmos 1110 Rocket 4.0 17:41:18 10° SSW 17:46:32 78° ESE 17:51:47 10° NNE
COSMOS 2487 2.9 17:43:17 10° NNW 17:46:43 64° WSW 17:50:06 10° S
Milstar 3 4.4 17:42:27 10° SW 17:47:42 22° S 17:52:41 10° ESE
YAOGAN 1 3.7 17:44:53 10° ESE 17:48:17 23° ENE 17:51:42 10° NNE
Cosmos 1689 Rocket 2.6 17:47:14 10° NNE 17:49:57 35° E 17:52:38 10° SSE
Meteor 2-21 Rocket 4.4 17:48:53 10° N 17:55:05 70° E 18:01:10 10° SSE
Cosmos 2227 Rocket 3.0 17:54:02 10° N 17:59:00 30° NE 18:03:35 12° ESE
SL-4 R/B 3.5 17:56:12 10° WNW 17:59:01 22° N 18:01:41 11° NE
Cosmos 1726 Rocket 3.4 17:56:06 10° S 18:00:24 71° E 18:04:47 10° NNE
Cosmos 1656 4.3 17:55:44 10° SSE 18:00:40 34° ESE 18:05:42 10° NE
Cosmos 1892 3.8 17:59:45 10° NNE 18:02:55 23° ENE 18:05:38 12° SE
Cosmos 1758 Rocket 4.3 17:59:18 10° NNW 18:03:38 58° W 18:07:54 10° S
Cosmos 1346 Rocket 4.2 18:03:04 10° NNE 18:05:57 19° ENE 18:06:07 19° ENE
BREEZE-M R/B 4.2 18:03:17 10° WNW 18:06:50 39° N 18:11:38 16° ENE
Okean-O 2.9 18:03:28 10° SE 18:07:42 46° ENE 18:11:57 10° N
CSL-04 Rocket 4.5 18:03:20 10° SE 18:08:07 31° ENE 18:12:54 10° N
CZ-2D R/B 3.3 18:04:34 10° SSE 18:08:17 53° ENE 18:12:01 10° N
Aureole 3 Rocket 3.0 18:06:45 10° S 18:10:17 53° E 18:15:02 10° NNE
MOS 1 Rocket 4.2 18:06:30 10° NE 18:10:28 27° E 18:14:37 10° SSE
Cosmos 1300 2.8 18:09:35 10° SSW 18:13:22 78° W 18:17:12 10° N
Cosmos 2228 3.7 18:11:01 10° SSW 18:15:11 57° W 18:19:24 10° N
Cosmos 1606 Rocket 4.1 18:10:57 10° SSW 18:15:15 62° W 18:19:37 10° N
GEOS 3 Rocket 4.2 18:12:44 17° ESE 18:16:24 41° NE 18:21:27 10° NNW
Cosmos 1697 Rocket 3.6 18:12:21 10° SSE 18:16:48 25° ESE 18:18:40 21° ENE
Cosmos 44 3.2 18:14:57 10° SW 18:19:25 79° NW 18:24:11 10° NNE
Cosmos 1745 Rocket 4.4 18:14:39 10° N 18:20:33 40° ENE 18:26:28 10° SE
SKYMED 2 3.7 18:17:10 10° N 18:21:31 78° WNW 18:25:51 10° SSW
Lacrosse 5 3.9 18:20:09 10° NW 18:23:30 17° N 18:26:51 10° NNE
IRS-P2 Rocket 4.5 18:20:17 10° SSE 18:25:29 76° ENE 18:30:46 10° NNW
Cosmos 1408 4.1 18:24:12 10° NNE 18:25:49 20° NE 18:25:49 20° NE
H-2A R/B 2.5 18:22:34 10° SE 18:27:37 42° ENE 18:32:44 10° N
CZ-4B R/B 4.2 18:28:55 10° NNW 18:31:18 19° WNW 18:33:37 10° WSW
USA 307 4.3 18:31:05 10° NW 18:34:38 24° NNE 18:35:30 23° NE
FALCON 9 DEB 3.3 18:34:47 10° WSW 18:37:58 59° NNW 18:38:42 44° NNE
Cosmos 1980 Rocket 4.2 18:34:41 10° SE 18:34:48 10° SE 18:34:48 10° SE
USA 308 4.2 18:35:53 10° NW 18:39:28 25° NNE 18:40:06 24° NNE
Cosmos 2297 Rocket 2.1 18:33:50 10° NNW 18:39:31 72° ENE 18:44:22 14° SSE
Helios 1A Rocket 3.2 18:35:48 10° S 18:39:53 67° WSW 18:44:01 10° NNW
Cosmos 1939 Rocket 4.2 18:38:51 10° S 18:42:38 41° W 18:46:23 10° NNW
In-Cosmos 22 Rocket 4.0 18:37:29 10° N 18:42:52 88° E 18:48:20 10° S
Cosmos 1340 2.7 18:40:00 10° NNW 18:43:46 77° W 18:47:32 10° S
Cosmos 2058 Rocket 3.6 18:39:43 10° SSW 18:44:09 63° W 18:48:38 10° N
FALCON 9 DEB 3.6 18:41:18 10° WSW 18:44:26 49° NNW 18:44:54 44° N
BREEZE-M R/B 4.1 18:38:23 10° WNW 18:44:33 35° N 18:45:14 31° NNE
Geosat 3.9 18:40:26 10° NNE 18:45:29 81° ESE 18:50:31 10° SSW
CSL-04 Debris 4.1 18:40:30 10° SSE 18:45:51 65° ENE 18:51:17 10° N
Cosmos 220 Rocket 4.2 18:44:19 10° S 18:48:15 49° ESE 18:48:15 49° ESE
Cosmos 1709 Rocket 4.4 18:44:39 10° N 18:50:37 40° ENE 18:51:44 37° E
FALCON 9 DEB 3.8 18:50:45 10° WSW 18:53:52 44° NNW 18:53:58 44° NNW
Cosmos 2058 2.7 18:57:45 10° N 19:01:47 81° NE 19:01:47 81° NE
CZ-4 R/B 2.4 18:58:47 10° S 19:02:33 44° W 19:06:16 10° NNW
Cosmos 883 Rocket 4.4 18:59:32 10° SSE 19:05:31 56° E 19:11:31 10° NNE
Cosmos 2219 3.5 19:00:53 10° NNW 19:06:36 67° WSW 19:11:45 13° S
S3M 3.9 19:01:42 10° S 19:07:48 88° W 19:14:00 10° N
BREEZE-M TANK 2.4 19:01:52 10° WNW 19:07:49 79° N 19:07:55 78° NE
OAO 2 Rocket 4.5 19:07:05 10° SW 19:10:58 28° S 19:10:58 28° S
SeaSat 1 2.3 19:11:59 70° ENE 19:12:06 70° ENE 19:17:01 10° NNW
Cosmos 2082 3.6 19:11:05 10° NNW 19:16:49 66° ENE 19:16:56 66° ENE
NOSS 3-3 (A) 3.7 19:12:19 10° SSW 19:18:01 77° ESE 19:19:19 56° NE
NOSS 3-3 (C) 3.7 19:12:23 10° SSW 19:18:09 77° ESE 19:19:26 57° NE
USA 215 3.7 19:20:28 41° NE 19:21:21 43° NNE 19:27:27 10° NW
CZ-2C R/B 4.2 19:16:26 10° S 19:22:03 50° W 19:27:36 10° NNW
YAOGAN 1 4.2 19:20:17 10° SSW 19:24:12 33° W 19:28:09 10° NNW
Cosmos 968 Rocket 3.9 19:21:12 10° NNW 19:26:20 61° WSW 19:28:01 40° SSW
Atlas Centaur 2 3.9 19:19:15 10° SW 19:26:27 31° S 19:27:34 30° SSE
Cosmos 2369 3.6 19:20:44 10° SSW 19:26:16 78° SE 19:26:16 78° SE
USA 305 4.4 19:22:34 10° NW 19:25:08 29° NNW 19:25:08 29° NNW
Meteor 2-10 Rocket 4.3 19:26:37 10° SSW 19:31:50 51° WNW 19:36:54 10° N
ATLAS 2AS CENTAUR R/B 3.7 19:25:28 10° NNW 19:31:55 33° NNE 19:31:55 33° NNE
ARGOS 3.3 19:32:00 49° S 19:33:26 71° WSW 19:38:53 10° NNW
SL-4 R/B 4.4 19:36:14 10° NW 19:37:16 16° NNW 19:37:16 16° NNW
Cosmos 2227 Rocket 3.2 19:37:52 10° NW 19:43:12 43° WSW 19:45:30 29° SSW
Cosmos 2263 Rocket 4.0 19:47:35 10° N 19:49:39 21° N 19:49:39 21° N
Cosmos 1697 Rocket 3.4 19:55:01 10° SW 20:00:26 49° WNW 20:00:30 49° WNW
H-2A R/B 4.0 20:02:39 10° SSW 20:07:09 27° W 20:11:44 10° NW
Lacrosse 5 4.2 20:04:27 10° NNW 20:06:03 16° NNW 20:06:03 16° NNW
CZ-4C R/B 4.1 20:05:40 10° NNW 20:09:43 27° N 20:09:43 27° N
